When you browse on this site, cookies collect data to enhance your experience and personalize the content and advertising you see.
Visit our Privacy Policy to learn more. By continuing to use the site, you agree to this use of cookies and data.
  • En España
  • Lista de países
  • Para 7 días
  • Temperatura del agua
  • El tiempo en el mapa
  • Informadores
  • user-avatar
    Iniciar sesión

    Tiempo cada hora Kokchetaw

    Hoy, 6 Junio, Sábado

    Tiempo Temperatura Precipitaciones Viento Presión Humedad
    00:00 +12°C° 0 mm 2 mps 745 mmHg 69%
    01:00 +12°C° 0 mm 2 mps 745 mmHg 72%
    02:00 +10°C° 0 mm 2 mps 745 mmHg 75%
    03:00 +10°C° 0 mm 2 mps 746 mmHg 76%
    04:00 +10°C° 0 mm 2 mps 746 mmHg 76%
    05:00 +10°C° 0 mm 3 mps 746 mmHg 77%
    06:00 +12°C° 0 mm 3 mps 746 mmHg 72%
    07:00 +14°C° 0 mm 3 mps 746 mmHg 66%
    08:00 +17°C° 0 mm 4 mps 746 mmHg 61%
    09:00 +18°C° 0 mm 4 mps 746 mmHg 54%
    10:00 +20°C° 0 mm 4 mps 746 mmHg 48%
    11:00 +21°C° 0 mm 5 mps 746 mmHg 40%
    12:00 +22°C° 0 mm 5 mps 746 mmHg 38%
    13:00 +22°C° 0 mm 4 mps 746 mmHg 35%
    14:00 +23°C° 0 mm 4 mps 746 mmHg 33%
    15:00 +23°C° 0 mm 4 mps 746 mmHg 33%
    16:00 +23°C° 0 mm 4 mps 746 mmHg 33%
    17:00 +23°C° 0 mm 4 mps 745 mmHg 33%
    18:00 +22°C° 0 mm 3 mps 745 mmHg 38%
    19:00 +21°C° 0 mm 2 mps 745 mmHg 43%
    20:00 +19°C° 0 mm 2 mps 745 mmHg 49%
    21:00 +18°C° 0 mm 2 mps 746 mmHg 51%
    22:00 +17°C° 0 mm 2 mps 746 mmHg 54%
    23:00 +16°C° 0 mm 2 mps 746 mmHg 56%

    Mañana, 7 Junio, Domingo

    Tiempo Temperatura Precipitaciones Viento Presión Humedad
    00:00 +16°C° 0 mm 1 mps 746 mmHg 60%
    01:00 +15°C° 0 mm 1 mps 746 mmHg 64%
    02:00 +14°C° 0 mm 0 mps 746 mmHg 68%
    03:00 +14°C° 0 mm 0 mps 746 mmHg 69%
    04:00 +14°C° 0 mm 0 mps 746 mmHg 70%
    05:00 +14°C° 0 mm 0 mps 747 mmHg 71%
    06:00 +16°C° 0 mm 0 mps 747 mmHg 66%
    07:00 +20°C° 0 mm 1 mps 747 mmHg 61%
    08:00 +21°C° 0 mm 1 mps 747 mmHg 57%
    09:00 +22°C° 0 mm 1 mps 747 mmHg 51%
    10:00 +23°C° 0 mm 2 mps 747 mmHg 46%
    11:00 +25°C° 0 mm 2 mps 747 mmHg 41%
    12:00 +25°C° 0 mm 2 mps 747 mmHg 38%
    13:00 +26°C° 0 mm 2 mps 746 mmHg 36%
    14:00 +26°C° 0 mm 1 mps 746 mmHg 33%
    15:00 +26°C° 0 mm 1 mps 746 mmHg 33%
    16:00 +26°C° 0 mm 2 mps 746 mmHg 33%
    17:00 +26°C° 0 mm 2 mps 746 mmHg 34%
    18:00 +25°C° 0 mm 1 mps 746 mmHg 37%
    19:00 +24°C° 0 mm 1 mps 745 mmHg 41%
    20:00 +23°C° 0 mm 1 mps 745 mmHg 45%
    21:00 +22°C° 0 mm 1 mps 745 mmHg 46%
    22:00 +21°C° 0 mm 1 mps 745 mmHg 47%
    23:00 +21°C° 0 mm 1 mps 746 mmHg 48%

    Pasado mañana, 8 Junio, Lunes

    Tiempo Temperatura Precipitaciones Viento Presión Humedad
    00:00 +20°C° 0 mm 1 mps 746 mmHg 50%
    01:00 +20°C° 0 mm 1 mps 745 mmHg 52%
    02:00 +19°C° 0 mm 1 mps 745 mmHg 55%
    03:00 +19°C° 0 mm 1 mps 745 mmHg 56%
    04:00 +19°C° 0 mm 1 mps 746 mmHg 58%
    05:00 +17°C° 0 mm 0 mps 746 mmHg 59%
    06:00 +21°C° 0 mm 1 mps 746 mmHg 55%
    07:00 +22°C° 0 mm 1 mps 746 mmHg 50%
    08:00 +24°C° 0 mm 1 mps 745 mmHg 46%
    09:00 +25°C° 0 mm 2 mps 745 mmHg 42%
    10:00 +25°C° 0 mm 2 mps 745 mmHg 38%
    11:00 +26°C° 0 mm 3 mps 745 mmHg 34%
    12:00 +26°C° 0 mm 3 mps 745 mmHg 34%
    13:00 +27°C° 0 mm 3 mps 745 mmHg 33%
    14:00 +27°C° 0 mm 3 mps 745 mmHg 33%
    15:00 +27°C° 0 mm 3 mps 745 mmHg 33%
    16:00 +27°C° 0 mm 4 mps 745 mmHg 33%
    17:00 +27°C° 0 mm 4 mps 744 mmHg 33%
    18:00 +26°C° 0 mm 3 mps 744 mmHg 38%
    19:00 +25°C° 0 mm 3 mps 744 mmHg 44%
    20:00 +22°C° 0 mm 3 mps 744 mmHg 49%
    21:00 +21°C° 0 mm 2 mps 744 mmHg 52%
    22:00 +20°C° 0 mm 2 mps 744 mmHg 54%
    23:00 +19°C° 0 mm 2 mps 744 mmHg 56%

    9 Junio, Martes

    Tiempo Temperatura Precipitaciones Viento Presión Humedad
    00:00 +18°C° 0 mm 2 mps 744 mmHg 59%
    01:00 +18°C° 0 mm 2 mps 744 mmHg 62%
    02:00 +18°C° 0 mm 1 mps 744 mmHg 65%
    03:00 +17°C° 0 mm 2 mps 744 mmHg 67%
    04:00 +17°C° 0 mm 2 mps 745 mmHg 68%
    05:00 +17°C° 0 mm 2 mps 745 mmHg 70%
    06:00 +19°C° 0 mm 2 mps 745 mmHg 64%
    07:00 +20°C° 0 mm 3 mps 745 mmHg 59%
    08:00 +22°C° 0 mm 3 mps 745 mmHg 53%
    09:00 +25°C° 0 mm 4 mps 745 mmHg 48%
    10:00 +27°C° 0 mm 4 mps 745 mmHg 43%
    11:00 +28°C° 0 mm 5 mps 745 mmHg 38%
    12:00 +28°C° 0 mm 5 mps 745 mmHg 38%
    13:00 +28°C° 0 mm 5 mps 745 mmHg 39%
    14:00 +28°C° 0 mm 5 mps 745 mmHg 39%
    15:00 +28°C° 0 mm 5 mps 745 mmHg 42%
    16:00 +27°C° 0 mm 5 mps 745 mmHg 44%
    17:00 +27°C° 0 mm 5 mps 745 mmHg 47%
    18:00 +26°C° 0 mm 5 mps 745 mmHg 49%
    19:00 +25°C° 0 mm 4 mps 745 mmHg 52%
    20:00 +23°C° 0 mm 4 mps 745 mmHg 55%
    21:00 +21°C° 0 mm 3 mps 746 mmHg 56%
    22:00 +20°C° 0 mm 3 mps 746 mmHg 58%
    23:00 +18°C° 0 mm 3 mps 746 mmHg 59%

    10 Junio, Miércoles

    Tiempo Temperatura Precipitaciones Viento Presión Humedad
    00:00 +18°C° 0 mm 2 mps 746 mmHg 63%
    01:00 +18°C° 0 mm 1 mps 746 mmHg 66%
    02:00 +18°C° 0 mm 1 mps 746 mmHg 70%
    03:00 +18°C° 0 mm 1 mps 746 mmHg 70%
    04:00 +18°C° 0 mm 1 mps 747 mmHg 71%
    05:00 +18°C° 0 mm 1 mps 747 mmHg 72%
    06:00 +20°C° 0 mm 1 mps 747 mmHg 66%
    07:00 +21°C° 0 mm 2 mps 747 mmHg 61%
    08:00 +24°C° 0 mm 2 mps 747 mmHg 55%
    09:00 +26°C° 0 mm 3 mps 747 mmHg 51%
    10:00 +27°C° 0 mm 3 mps 747 mmHg 47%
    11:00 +28°C° 0 mm 4 mps 747 mmHg 43%
    12:00 +29°C° 0 mm 4 mps 747 mmHg 41%
    13:00 +29°C° 0 mm 4 mps 747 mmHg 39%
    14:00 +29°C° 0 mm 4 mps 747 mmHg 37%
    15:00 +29°C° 0 mm 4 mps 746 mmHg 38%
    16:00 +29°C° 0 mm 5 mps 746 mmHg 39%
    17:00 +29°C° 0 mm 5 mps 746 mmHg 39%
    18:00 +28°C° 0 mm 4 mps 746 mmHg 44%
    19:00 +26°C° 0 mm 3 mps 746 mmHg 49%
    20:00 +25°C° 0 mm 3 mps 746 mmHg 53%
    21:00 +24°C° 0 mm 2 mps 746 mmHg 55%
    22:00 +23°C° 0 mm 2 mps 746 mmHg 57%
    23:00 +21°C° 0 mm 2 mps 746 mmHg 59%

    11 Junio, Jueves

    Tiempo Temperatura Precipitaciones Viento Presión Humedad
    00:00 +21°C° 0 mm 2 mps 746 mmHg 61%
    01:00 +20°C° 0 mm 2 mps 746 mmHg 62%
    02:00 +20°C° 0 mm 2 mps 745 mmHg 63%
    03:00 +20°C° 0 mm 2 mps 745 mmHg 64%
    04:00 +20°C° 0 mm 2 mps 745 mmHg 65%
    05:00 +20°C° 0 mm 2 mps 745 mmHg 66%
    06:00 +21°C° 0 mm 3 mps 745 mmHg 64%
    07:00 +22°C° 0 mm 3 mps 745 mmHg 61%
    08:00 +24°C° 0 mm 3 mps 745 mmHg 59%
    09:00 +26°C° 0 mm 4 mps 745 mmHg 51%
    10:00 +28°C° 0 mm 4 mps 745 mmHg 44%
    11:00 +29°C° 0 mm 5 mps 744 mmHg 36%
    12:00 +30°C° 0 mm 5 mps 744 mmHg 36%
    13:00 +30°C° 0 mm 5 mps 744 mmHg 35%
    14:00 +30°C° 0 mm 5 mps 744 mmHg 34%
    15:00 +30°C° 0 mm 5 mps 744 mmHg 35%
    16:00 +30°C° 0 mm 5 mps 743 mmHg 37%
    17:00 +30°C° 0 mm 5 mps 743 mmHg 38%
    18:00 +28°C° 0 mm 5 mps 743 mmHg 43%
    19:00 +27°C° 0 mm 4 mps 743 mmHg 49%
    20:00 +26°C° 0 mm 3 mps 742 mmHg 54%
    21:00 +25°C° 0 mm 3 mps 742 mmHg 55%
    22:00 +24°C° 0 mm 3 mps 742 mmHg 57%
    23:00 +23°C° 0 mm 2 mps 742 mmHg 58%
    Mostrar más